This is the latest recevied weather packets stored in our database for station/object EB1TK-13. If no packets are shown the sender has not sent any weather packets the latest 1 day(s).
| Time | Temp. | Humidity | Pressure | Rain* | Wind** | Luminosity | Snow |
|---|---|---|---|---|---|---|---|
| 1777978935 | 14.44° C | 80% | 1014.2 hPa | 0 mm | 6.26 m/s, 262° | - | - |
| 1777978336 | 14.44° C | 80% | 1014.1 hPa | 0 mm | 5.81 m/s, 262° | - | - |
| 1777977736 | 13.89° C | 81% | 1014.3 hPa | 0 mm | 6.26 m/s, 268° | - | - |
| 1777977136 | 13.89° C | 81% | 1014.3 hPa | 0 mm | 5.36 m/s, 257° | - | - |
| 1777976536 | 13.89° C | 82% | 1014.3 hPa | 0 mm | 5.81 m/s, 256° | - | - |
| 1777975937 | 13.89° C | 85% | 1014.3 hPa | 0.25 mm | 3.58 m/s, 250° | - | - |
| 1777975335 | 13.33° C | 85% | 1014.2 hPa | 0.51 mm | 4.92 m/s, 246° | - | - |
| 1777974735 | 12.78° C | 87% | 1014.1 hPa | 0.51 mm | 3.13 m/s, 250° | - | - |
| 1777974135 | 12.78° C | 88% | 1014.1 hPa | 0.51 mm | 1.79 m/s, 233° | - | - |
| 1777969361 | 12.22° C | 84% | 1014.2 hPa | 0 mm | 1.34 m/s, 226° | - | - |
| 1777968142 | 12.22° C | 84% | 1014.1 hPa | 0 mm | 1.34 m/s, 235° | - | - |
| 1777967537 | 12.22° C | 84% | 1014 hPa | 0 mm | 1.34 m/s, 232° | - | - |
| 1777966935 | 12.22° C | 84% | 1014 hPa | 0 mm | 2.68 m/s, 222° | - | - |
| 1777966335 | 12.22° C | 84% | 1014 hPa | 0 mm | 2.24 m/s, 231° | - | - |
| 1777965736 | 11.67° C | 84% | 1014 hPa | 0 mm | 1.79 m/s, 227° | - | - |
| 1777965136 | 11.67° C | 84% | 1013.9 hPa | 0 mm | 1.79 m/s, 229° | - | - |
| 1777964536 | 11.67° C | 83% | 1013.8 hPa | 0 mm | 2.24 m/s, 224° | - | - |
| 1777963937 | 11.67° C | 83% | 1013.7 hPa | 0 mm | 2.24 m/s, 234° | - | - |
| 1777963337 | 11.67° C | 83% | 1013.7 hPa | 0 mm | 2.24 m/s, 233° | - | - |
| 1777962735 | 11.67° C | 84% | 1013.7 hPa | 0 mm | 2.68 m/s, 226° | - | - |
| 1777962135 | 11.67° C | 84% | 1013.6 hPa | 0 mm | 1.79 m/s, 235° | - | - |
| 1777961536 | 11.67° C | 83% | 1013.6 hPa | 0 mm | 2.24 m/s, 227° | - | - |
| 1777960936 | 11.67° C | 83% | 1013.7 hPa | 0 mm | 2.24 m/s, 235° | - | - |
| 1777960337 | 11.11° C | 84% | 1013.5 hPa | 0 mm | 1.79 m/s, 239° | - | - |
| 1777959737 | 11.11° C | 86% | 1013.5 hPa | 0 mm | 2.68 m/s, 226° | - | - |
* Rain latest hour (hover to see other rain measurements)
** Current wind speed in m/s (hover to see current wind gust speed)